Date String (YYYY-MM-DD hh:mm:ss) UTC,Instrument flags,absolute air pressure of the measurement (hPa),sample flow rate (lpm),inlet stack bypass flow (lpm),air temperature of the measurement (°C),ambient temperature measured by the external sensor (°C),aerosol sample conditioner tube jacket temperature (°C),OPC LED temperature (°C),internal box temperature (°C),relative humidity of the measurement (%),span deviation,mass concentration of particles derived from Lorenz-Mie calculation of OPC scattering (μg/m³),mass concentration of particles derived from Lorenz-Mie calculation of OPC scattering (μg/m³),mass concentration of particles derived from Lorenz-Mie calculation of OPC scattering (μg/m³)
DateTimeUTC,F1_M11,P_M11,Q1_M11,Q2_M11,T1_M11,T2_M11,T3_M11,T4_M11,T5_M11,U1_M11,ZSPAN_M11,X0_M11,X2_M11,X1_M11
2023-11-06 03:00:00,SystemResetWarning,0825.6,5.00,000.00,027.6,026.7,000.0,035.9,029.2,9.1,0000.0,0003.87,0002.62,0002.21
2023-11-06 03:01:00,SystemResetWarning,0825.6,5.00,000.00,027.6,026.8,000.0,035.9,029.2,9.0,0000.0,0003.80,0002.59,0002.19
2023-11-06 03:02:00,SystemResetWarning,0825.6,5.00,000.00,027.7,026.8,000.0,035.9,029.3,9.1,0000.0,0003.72,0002.55,0002.18
2023-11-06 03:03:00,SystemResetWarning,0825.6,5.00,000.00,027.7,026.9,000.0,035.9,029.3,9.0,0000.0,0003.66,0002.53,0002.18
2023-11-06 03:04:00,SystemResetWarning,0825.5,5.01,000.00,027.7,026.9,000.0,035.9,029.3,9.1,0000.0,0003.60,0002.47,0002.16
2023-11-06 03:05:00,SystemResetWarning,0825.5,5.00,000.00,027.8,027.0,000.0,036.0,029.3,8.9,0000.0,0003.56,0002.47,0002.17
2023-11-06 03:06:00,SystemResetWarning,0825.5,5.00,000.00,027.8,027.0,000.0,036.0,029.3,8.8,0000.0,0003.35,0002.43,0002.18
2023-11-06 03:07:00,SystemResetWarning,0825.4,4.98,000.00,027.8,027.0,000.0,036.0,029.4,8.8,0000.0,0003.32,0002.43,0002.19
2023-11-06 03:08:00,SystemResetWarning,0825.5,4.99,000.00,027.8,027.0,000.0,036.0,029.3,8.9,0000.0,0003.30,0002.42,0002.19
2023-11-06 03:09:00,SystemResetWarning,0825.6,5.00,000.00,027.8,027.0,000.0,036.0,029.4,9.0,0000.0,0003.30,0002.42,0002.19
2023-11-06 03:10:00,SystemResetWarning,0825.6,5.00,000.00,027.9,027.1,000.0,036.1,029.4,9.1,0000.0,0003.17,0002.41,0002.18
2023-11-06 03:11:00,SystemResetWarning,0825.7,5.00,000.00,027.9,027.1,000.0,036.1,029.4,9.0,0000.0,0002.92,0002.38,0002.18
2023-11-06 03:12:00,SystemResetWarning,0825.7,5.00,000.00,027.9,027.1,000.0,036.1,029.4,8.9,0000.0,0002.87,0002.37,0002.19
2023-11-06 03:13:00,SystemResetWarning,0825.6,5.00,000.00,027.9,027.1,000.0,036.1,029.5,9.0,0000.0,0003.01,0002.43,0002.22
2023-11-06 03:14:00,SystemResetWarning,0825.6,5.00,000.00,027.9,027.1,000.0,036.1,029.5,8.8,0000.0,0003.05,0002.45,0002.23
2023-11-06 03:15:00,SystemResetWarning,0825.5,4.99,000.00,027.9,027.2,000.0,036.2,029.5,8.9,0000.0,0003.12,0002.49,0002.26
2023-11-06 03:16:00,SystemResetWarning,0825.6,4.99,000.00,028.0,027.2,000.0,036.2,029.5,8.8,0000.0,0003.15,0002.53,0002.27
2023-11-06 03:17:00,SystemResetWarning,0825.6,4.99,000.00,028.0,027.2,000.0,036.2,029.5,8.9,0000.0,0003.24,0002.56,0002.28
2023-11-06 03:18:00,SystemResetWarning,0825.6,5.00,000.00,028.0,027.2,000.0,036.2,029.6,8.7,0000.0,0003.38,0002.59,0002.31
2023-11-06 03:19:00,SystemResetWarning,0825.7,5.00,000.00,028.0,027.3,000.0,036.2,029.6,8.9,0000.0,0003.46,0002.62,0002.31
2023-11-06 03:20:00,SystemResetWarning,0825.6,5.00,000.00,028.0,027.3,000.0,036.3,029.6,8.7,0000.0,0003.53,0002.65,0002.33
2023-11-06 03:21:00,SystemResetWarning,0825.6,5.00,000.00,028.1,027.3,000.0,036.3,029.6,8.7,0000.0,0003.53,0002.66,0002.33
2023-11-06 03:22:00,SystemResetWarning,0825.6,5.00,000.00,028.1,027.3,000.0,036.3,029.6,8.8,0000.0,0003.63,0002.69,0002.35
2023-11-06 03:23:00,SystemResetWarning,0825.5,5.00,000.00,028.1,027.3,000.0,036.3,029.7,8.7,0000.0,0003.68,0002.71,0002.36
2023-11-06 03:24:00,SystemResetWarning,0825.5,5.01,000.00,028.1,027.3,000.0,036.3,029.6,8.7,0000.0,0003.58,0002.68,0002.36
2023-11-06 03:25:00,SystemResetWarning,0825.5,5.00,000.00,028.1,027.4,000.0,036.3,029.7,8.8,0000.0,0003.53,0002.67,0002.37
2023-11-06 03:26:00,SystemResetWarning,0825.4,5.01,000.00,028.1,027.4,000.0,036.4,029.7,8.8,0000.0,0003.53,0002.68,0002.38
2023-11-06 03:27:00,SystemResetWarning,0825.4,5.00,000.00,028.2,027.4,000.0,036.4,029.7,8.8,0000.0,0003.43,0002.66,0002.39
2023-11-06 03:28:00,SystemResetWarning,0825.4,5.00,000.00,028.2,027.4,000.0,036.4,029.7,8.8,0000.0,0003.46,0002.68,0002.41
2023-11-06 03:29:00,SystemResetWarning,0825.4,5.00,000.00,028.2,027.4,000.0,036.4,029.7,8.7,0000.0,0003.54,0002.70,0002.43
2023-11-06 03:30:00,SystemResetWarning,0825.4,5.00,000.00,028.2,027.4,000.0,036.4,029.7,8.8,0000.0,0003.47,0002.70,0002.44
2023-11-06 03:31:00,SystemResetWarning,0825.4,4.99,000.00,028.2,027.4,000.0,036.4,029.7,8.9,0000.0,0003.50,0002.71,0002.46
2023-11-06 03:32:00,SystemResetWarning,0825.5,5.01,000.00,028.2,027.4,000.0,036.5,029.7,8.9,0000.0,0003.73,0002.75,0002.48
2023-11-06 03:33:00,SystemResetWarning,0825.5,5.00,000.00,028.2,027.4,000.0,036.5,029.7,9.0,0000.0,0005.00,0002.77,0002.50
2023-11-06 03:34:00,SystemResetWarning,0825.6,5.00,000.00,028.3,027.5,000.0,036.5,029.7,9.1,0000.0,0005.02,0002.79,0002.53
2023-11-06 03:35:00,SystemResetWarning,0825.6,5.00,000.00,028.3,027.5,000.0,036.5,029.8,9.1,0000.0,0005.06,0002.81,0002.54
2023-11-06 03:36:00,SystemResetWarning,0825.6,5.00,000.00,028.3,027.5,000.0,036.5,029.7,8.9,0000.0,0005.36,0002.86,0002.55
2023-11-06 03:37:00,SystemResetWarning,0825.6,5.00,000.00,028.3,027.5,000.0,036.5,029.8,8.7,0000.0,0005.87,0002.90,0002.57
2023-11-06 03:38:00,SystemResetWarning,0825.7,5.00,000.00,028.3,027.5,000.0,036.6,029.8,8.8,0000.0,0006.04,0002.94,0002.61
2023-11-06 03:39:00,SystemResetWarning,0825.8,5.00,000.00,028.3,027.5,000.0,036.6,029.8,9.0,0000.0,0006.07,0002.97,0002.63
2023-11-06 03:40:00,SystemResetWarning,0825.8,5.01,000.00,028.3,027.5,000.0,036.6,029.8,9.1,0000.0,0005.99,0002.97,0002.64
2023-11-06 03:41:00,SystemResetWarning,0825.8,5.00,000.00,028.3,027.5,000.0,036.6,029.9,9.1,0000.0,0005.96,0002.94,0002.63
2023-11-06 03:42:00,SystemResetWarning,0825.8,4.98,000.00,028.3,026.4,000.0,036.6,029.8,9.0,0000.0,0006.05,0002.98,0002.66
2023-11-06 03:43:00,SystemResetWarning,0825.6,5.00,000.00,028.3,024.5,000.0,036.5,029.5,8.9,0000.0,0006.10,0003.02,0002.69
2023-11-06 03:44:00,SystemResetWarning,0825.6,5.01,000.00,028.1,024.1,000.0,036.5,029.3,9.1,0000.0,0004.91,0003.09,0002.73
2023-11-06 03:45:00,SystemResetWarning,0825.7,5.02,000.00,027.9,024.4,000.0,036.4,028.9,9.4,0000.0,0004.96,0003.12,0002.76
2023-11-06 03:46:00,SystemResetWarning,0825.7,4.99,000.00,027.8,024.8,000.0,036.4,028.9,9.5,0000.0,0005.41,0003.13,0002.78
2023-11-06 03:47:00,SystemResetWarning,0825.6,4.99,000.00,027.8,025.2,000.0,036.3,028.9,9.3,0000.0,0005.65,0003.13,0002.80
2023-11-06 03:48:00,SystemResetWarning,0825.7,5.00,000.00,027.8,025.6,000.0,036.3,029.0,9.0,0000.0,0005.23,0003.12,0002.80
2023-11-06 03:49:00,SystemResetWarning,0825.7,5.01,000.00,027.8,025.8,000.0,036.3,029.1,9.2,0000.0,0005.08,0003.12,0002.81
2023-11-06 03:50:00,SystemResetWarning,0825.8,5.00,000.00,027.8,026.1,000.0,036.2,029.1,9.5,0000.0,0005.24,0003.14,0002.83
2023-11-06 03:51:00,SystemResetWarning,0825.8,4.98,000.00,027.8,026.2,000.0,036.2,029.2,9.3,0000.0,0005.41,0003.15,0002.84
2023-11-06 03:52:00,SystemResetWarning,0825.8,5.00,000.00,027.8,026.4,000.0,036.2,029.2,9.2,0000.0,0005.41,0003.16,0002.86
2023-11-06 03:53:00,SystemResetWarning,0825.7,5.01,000.00,027.8,026.5,000.0,036.2,029.3,9.3,0000.0,0005.54,0003.16,0002.86
2023-11-06 03:54:00,SystemResetWarning,0825.7,5.01,000.00,027.8,026.6,000.0,036.2,029.3,9.1,0000.0,0005.70,0003.17,0002.83
2023-11-06 03:55:00,SystemResetWarning,0825.8,5.00,000.00,027.8,026.7,000.0,036.2,029.3,8.9,0000.0,0005.79,0003.17,0002.83
2023-11-06 03:56:00,SystemResetWarning,0825.7,4.99,000.00,027.8,026.8,000.0,036.2,029.3,8.9,0000.0,0005.57,0003.13,0002.80
2023-11-06 03:57:00,SystemResetWarning,0825.7,5.00,000.00,027.9,026.9,000.0,036.2,029.4,9.0,0000.0,0005.27,0003.14,0002.81
2023-11-06 03:58:00,SystemResetWarning,0825.6,5.01,000.00,027.9,026.9,000.0,036.2,029.4,8.8,0000.0,0004.86,0003.17,0002.84
2023-11-06 03:59:00,SystemResetWarning,0825.6,5.00,000.00,027.9,027.0,000.0,036.2,029.4,8.9,0000.0,0004.99,0003.19,0002.85
